This is the latest recevied weather packets stored in our database for station/object OE-11204. If no packets are shown the sender has not sent any weather packets the latest 10 day(s).
| Time | Temp. | Humidity | Pressure | Rain* | Wind** | Luminosity | Snow |
|---|---|---|---|---|---|---|---|
| 1787697315 | 13.89° C | 95% | 1017.9 hPa | 0 mm | - | 0 W/m² | - |
| 1787696715 | 14.44° C | 95% | 1017.7 hPa | 0 mm | - | 0 W/m² | - |
| 1787695888 | 14.44° C | 95% | 1017.6 hPa | 0 mm | - | 0 W/m² | - |
| 1787695515 | 14.44° C | 95% | 1017.4 hPa | 0 mm | - | 0 W/m² | - |
| 1787694914 | 15° C | 95% | 1017.3 hPa | 0 mm | - | 0 W/m² | - |
| 1787694088 | 14.44° C | 94% | 1017.4 hPa | 0 mm | - | 0 W/m² | - |
| 1787693714 | 14.44° C | 94% | 1017 hPa | 0 mm | - | 0 W/m² | - |
| 1787693114 | 15° C | 94% | 1016.7 hPa | 0 mm | - | 0 W/m² | - |
| 1787692288 | 15° C | 94% | 1016.6 hPa | 0 mm | - | 0 W/m² | - |
| 1787691914 | 15.56° C | 93% | 1016.3 hPa | 0 mm | - | 0 W/m² | - |
| 1787691315 | 15.56° C | 93% | 1016.2 hPa | 0 mm | - | 0 W/m² | - |
| 1787690488 | 15.56° C | 93% | 1016 hPa | 0 mm | - | 0 W/m² | - |
| 1787690115 | 16.11° C | 93% | 1016 hPa | 0 mm | - | 0 W/m² | - |
| 1787689514 | 16.11° C | 94% | 1015.8 hPa | 0 mm | - | 0 W/m² | - |
| 1787688688 | 16.11° C | 91% | 1015.7 hPa | 0 mm | - | 0 W/m² | - |
| 1787688314 | 16.67° C | 91% | 1015.5 hPa | 0 mm | - | 0 W/m² | - |
| 1787687715 | 16.67° C | 91% | 1015.3 hPa | 0 mm | - | 0 W/m² | - |
| 1787686888 | 16.67° C | 91% | 1015.1 hPa | 0 mm | - | 0 W/m² | - |
| 1787686514 | 17.22° C | 92% | 1015 hPa | 0 mm | - | 0 W/m² | - |
| 1787685915 | 17.22° C | 90% | 1014.7 hPa | 0 mm | - | 0 W/m² | - |
| 1787685088 | 17.22° C | 90% | 1014.6 hPa | 0 mm | - | 0 W/m² | - |
| 1787684714 | 17.78° C | 90% | 1014.5 hPa | 0 mm | - | 0 W/m² | - |
| 1787684115 | 17.78° C | 93% | 1014.3 hPa | 0 mm | - | 0 W/m² | - |
| 1787683288 | 17.78° C | 92% | 1014.2 hPa | 0 mm | - | 0 W/m² | - |
| 1787682315 | 17.78° C | 90% | 1014 hPa | 0 mm | - | 0 W/m² | - |
* Rain latest hour (hover to see other rain measurements)
** Current wind speed in m/s (hover to see current wind gust speed)